Tracking 27402 objects as of 2-Jun-2023
HD Live streaming from Space Station
objects crossing your sky now

SL-14 DEB

Track SL-14 DEB now!
10-day predictions


NORAD ID: 25999
Int'l Code: 1991-068J
Perigee: 1,372.9 km
Apogee: 1,473.4 km
Inclination: 82.7 °
Period: 114.1 minutes
Semi major axis: 7794 km
RCS: 0.0764 m2 (small)
Launch date: September 28, 1991
Source: Commonwealth of Independent States (former USSR) (CIS)
Launch site: PLESETSK MISSILE AND SPACE COMPLEX (PKMTR)

Note: This is SATELLITE DEBRIS
Your satellite tracking list
Your tracking list is empty




NASA's NSSDC Master Catalog

Two Line Element Set (TLE):
1 25999U 91068J   23152.34002312  .00000158  00000-0  82407-3 0  9994
2 25999  82.6965  86.4768 0064505  57.6607  71.1334 12.61676601 88227
Source of the keplerian elements: AFSPC